Data supplied by UK-AIR on 29/3/2016
All Data GMT hour ending 
Status: R =Ratified P=Provisional,P*=As supplied
,,Bottesford,,,,,,,,,,,,,,,,,,,,,,,
Date,time,"Ozone",status,unit
 
01-01-2015,01:00,58.27444,R,ugm-3
01-01-2015,02:00,57.07702,R,ugm-3
01-01-2015,03:00,57.17681,R,ugm-3
01-01-2015,04:00,57.87530,R,ugm-3
01-01-2015,05:00,58.07487,R,ugm-3
01-01-2015,06:00,59.17251,R,ugm-3
01-01-2015,07:00,59.97079,R,ugm-3
01-01-2015,08:00,60.46971,R,ugm-3
01-01-2015,09:00,60.81896,R,ugm-3
01-01-2015,10:00,62.91444,R,ugm-3
01-01-2015,11:00,64.66068,R,ugm-3
01-01-2015,12:00,64.16176,R,ugm-3
01-01-2015,13:00,64.21165,R,ugm-3
01-01-2015,14:00,68.40262,R,ugm-3
01-01-2015,15:00,69.50025,R,ugm-3
01-01-2015,16:00,69.94929,R,ugm-3
01-01-2015,17:00,69.55015,R,ugm-3
01-01-2015,18:00,70.59789,R,ugm-3
01-01-2015,19:00,70.49810,R,ugm-3
01-01-2015,20:00,70.39832,R,ugm-3
01-01-2015,21:00,70.09896,R,ugm-3
01-01-2015,22:00,69.60004,R,ugm-3
01-01-2015,23:00,68.65208,R,ugm-3
01-01-2015,24:00,69.45036,R,ugm-3
02-01-2015,01:00,69.05122,R,ugm-3
02-01-2015,02:00,67.45466,R,ugm-3
02-01-2015,03:00,78.73037,R,ugm-3
02-01-2015,04:00,83.91919,R,ugm-3
02-01-2015,05:00,83.17080,R,ugm-3
02-01-2015,06:00,80.82585,R,ugm-3
02-01-2015,07:00,78.53080,R,ugm-3
02-01-2015,08:00,74.48950,R,ugm-3
02-01-2015,09:00,71.24649,R,ugm-3
02-01-2015,10:00,68.55230,R,ugm-3
02-01-2015,11:00,70.54800,R,ugm-3
02-01-2015,12:00,70.69767,R,ugm-3
02-01-2015,13:00,73.29208,R,ugm-3
02-01-2015,14:00,77.83230,R,ugm-3
02-01-2015,15:00,76.53510,R,ugm-3
02-01-2015,16:00,71.64563,R,ugm-3
02-01-2015,17:00,67.20520,R,ugm-3
02-01-2015,18:00,63.31358,R,ugm-3
02-01-2015,19:00,59.62154,R,ugm-3
02-01-2015,20:00,55.68003,R,ugm-3
02-01-2015,21:00,55.28089,R,ugm-3
02-01-2015,22:00,52.23745,R,ugm-3
02-01-2015,23:00,53.13551,R,ugm-3
02-01-2015,24:00,57.97509,R,ugm-3
03-01-2015,01:00,61.06842,R,ugm-3
03-01-2015,02:00,65.39244,R,ugm-3
03-01-2015,03:00,62.26584,R,ugm-3
03-01-2015,04:00,61.41767,R,ugm-3
03-01-2015,05:00,59.32218,R,ugm-3
03-01-2015,06:00,65.95789,R,ugm-3
03-01-2015,07:00,77.18370,R,ugm-3
03-01-2015,08:00,75.98628,R,ugm-3
03-01-2015,09:00,70.24864,R,ugm-3
03-01-2015,10:00,68.80176,R,ugm-3
03-01-2015,11:00,69.35058,R,ugm-3
03-01-2015,12:00,56.92734,R,ugm-3
03-01-2015,13:00,52.23745,R,ugm-3
03-01-2015,14:00,51.28949,R,ugm-3
03-01-2015,15:00,51.53895,R,ugm-3
03-01-2015,16:00,42.75787,R,ugm-3
03-01-2015,17:00,33.67744,R,ugm-3
03-01-2015,18:00,17.06324,R,ugm-3
03-01-2015,19:00,10.02839,R,ugm-3
03-01-2015,20:00,2.19527,R,ugm-3
03-01-2015,21:00,6.53592,R,ugm-3
03-01-2015,22:00,14.46883,R,ugm-3
03-01-2015,23:00,16.61420,R,ugm-3
03-01-2015,24:00,17.26281,R,ugm-3
04-01-2015,01:00,19.95700,R,ugm-3
04-01-2015,02:00,29.73593,R,ugm-3
04-01-2015,03:00,26.39313,R,ugm-3
04-01-2015,04:00,26.49292,R,ugm-3
04-01-2015,05:00,26.79227,R,ugm-3
04-01-2015,06:00,24.19786,R,ugm-3
04-01-2015,07:00,24.69679,R,ugm-3
04-01-2015,08:00,27.69034,R,ugm-3
04-01-2015,09:00,32.23056,R,ugm-3
04-01-2015,10:00,32.52991,R,ugm-3
04-01-2015,11:00,35.17421,R,ugm-3
04-01-2015,12:00,36.42153,R,ugm-3
04-01-2015,13:00,36.77077,R,ugm-3
04-01-2015,14:00,43.45637,R,ugm-3
04-01-2015,15:00,37.26970,R,ugm-3
04-01-2015,16:00,19.95700,R,ugm-3
04-01-2015,17:00,18.90926,R,ugm-3
04-01-2015,18:00,29.28690,R,ugm-3
04-01-2015,19:00,27.74023,R,ugm-3
04-01-2015,20:00,37.56905,R,ugm-3
04-01-2015,21:00,39.61465,R,ugm-3
04-01-2015,22:00,39.26540,R,ugm-3
04-01-2015,23:00,38.31744,R,ugm-3
04-01-2015,24:00,42.05938,R,ugm-3
05-01-2015,01:00,39.71443,R,ugm-3
05-01-2015,02:00,44.63716,R,ugm-3
05-01-2015,03:00,43.65594,R,ugm-3
05-01-2015,04:00,42.25895,R,ugm-3
05-01-2015,05:00,37.96819,R,ugm-3
05-01-2015,06:00,44.40433,R,ugm-3
05-01-2015,07:00,47.64734,R,ugm-3
05-01-2015,08:00,42.50841,R,ugm-3
05-01-2015,09:00,35.32389,R,ugm-3
05-01-2015,10:00,31.68174,R,ugm-3
05-01-2015,11:00,33.17851,R,ugm-3
05-01-2015,12:00,37.02024,R,ugm-3
05-01-2015,13:00,39.56475,R,ugm-3
05-01-2015,14:00,39.16561,R,ugm-3
05-01-2015,15:00,41.80992,R,ugm-3
05-01-2015,16:00,58.77337,R,ugm-3
05-01-2015,17:00,58.07487,R,ugm-3
05-01-2015,18:00,51.23960,R,ugm-3
05-01-2015,19:00,37.41938,R,ugm-3
05-01-2015,20:00,36.17206,R,ugm-3
05-01-2015,21:00,43.85551,R,ugm-3
05-01-2015,22:00,56.47831,R,ugm-3
05-01-2015,23:00,62.76477,R,ugm-3
05-01-2015,24:00,63.36348,R,ugm-3
06-01-2015,01:00,63.46326,R,ugm-3
06-01-2015,02:00,59.20577,R,ugm-3
06-01-2015,03:00,54.93164,R,ugm-3
06-01-2015,04:00,53.58455,R,ugm-3
06-01-2015,05:00,52.63659,R,ugm-3
06-01-2015,06:00,52.23745,R,ugm-3
06-01-2015,07:00,53.13551,R,ugm-3
06-01-2015,08:00,48.54540,R,ugm-3
06-01-2015,09:00,43.50626,R,ugm-3
06-01-2015,10:00,45.70153,R,ugm-3
06-01-2015,11:00,49.09422,R,ugm-3
06-01-2015,12:00,57.32648,R,ugm-3
06-01-2015,13:00,70.09896,R,ugm-3
06-01-2015,14:00,67.70412,R,ugm-3
06-01-2015,15:00,66.45681,R,ugm-3
06-01-2015,16:00,58.92304,R,ugm-3
06-01-2015,17:00,49.54325,R,ugm-3
06-01-2015,18:00,43.30669,R,ugm-3
06-01-2015,19:00,38.76647,R,ugm-3
06-01-2015,20:00,36.12217,R,ugm-3
06-01-2015,21:00,32.62970,R,ugm-3
06-01-2015,22:00,31.13292,R,ugm-3
06-01-2015,23:00,27.29120,R,ugm-3
06-01-2015,24:00,33.72733,R,ugm-3
07-01-2015,01:00,39.04920,R,ugm-3
07-01-2015,02:00,44.03845,R,ugm-3
07-01-2015,03:00,43.35658,R,ugm-3
07-01-2015,04:00,47.89680,R,ugm-3
07-01-2015,05:00,56.07917,R,ugm-3
07-01-2015,06:00,58.17466,R,ugm-3
07-01-2015,07:00,55.43057,R,ugm-3
07-01-2015,08:00,49.94239,R,ugm-3
07-01-2015,09:00,43.75572,R,ugm-3
07-01-2015,10:00,58.72347,R,ugm-3
07-01-2015,11:00,59.92089,R,ugm-3
07-01-2015,12:00,58.62369,R,ugm-3
07-01-2015,13:00,64.41122,R,ugm-3
07-01-2015,14:00,63.16391,R,ugm-3
07-01-2015,15:00,63.81251,R,ugm-3
07-01-2015,16:00,66.50670,R,ugm-3
07-01-2015,17:00,67.65423,R,ugm-3
07-01-2015,18:00,67.65423,R,ugm-3
07-01-2015,19:00,64.66068,R,ugm-3
07-01-2015,20:00,65.00993,R,ugm-3
07-01-2015,21:00,67.80391,R,ugm-3
07-01-2015,22:00,70.04907,R,ugm-3
07-01-2015,23:00,70.69767,R,ugm-3
07-01-2015,24:00,70.34843,R,ugm-3
08-01-2015,01:00,69.71645,R,ugm-3
08-01-2015,02:00,65.92462,R,ugm-3
08-01-2015,03:00,72.44391,R,ugm-3
08-01-2015,04:00,75.98628,R,ugm-3
08-01-2015,05:00,71.99488,R,ugm-3
08-01-2015,06:00,65.85810,R,ugm-3
08-01-2015,07:00,67.05552,R,ugm-3
08-01-2015,08:00,64.81036,R,ugm-3
08-01-2015,09:00,57.92519,R,ugm-3
08-01-2015,10:00,64.01208,R,ugm-3
08-01-2015,11:00,50.49121,R,ugm-3
08-01-2015,12:00,47.14841,R,ugm-3
08-01-2015,13:00,62.06627,R,ugm-3
08-01-2015,14:00,,,
08-01-2015,15:00,59.40534,R,ugm-3
08-01-2015,16:00,57.32648,R,ugm-3
08-01-2015,17:00,47.99659,R,ugm-3
08-01-2015,18:00,50.69078,R,ugm-3
08-01-2015,19:00,46.84906,R,ugm-3
08-01-2015,20:00,48.89465,R,ugm-3
08-01-2015,21:00,50.79057,R,ugm-3
08-01-2015,22:00,59.57165,R,ugm-3
08-01-2015,23:00,58.07487,R,ugm-3
08-01-2015,24:00,62.81466,R,ugm-3
09-01-2015,01:00,70.78083,R,ugm-3
09-01-2015,02:00,77.23359,R,ugm-3
09-01-2015,03:00,81.72392,R,ugm-3
09-01-2015,04:00,79.62843,R,ugm-3
09-01-2015,05:00,76.73467,R,ugm-3
09-01-2015,06:00,74.98843,R,ugm-3
09-01-2015,07:00,73.94069,R,ugm-3
09-01-2015,08:00,68.55230,R,ugm-3
09-01-2015,09:00,64.16176,R,ugm-3
09-01-2015,10:00,63.06412,R,ugm-3
09-01-2015,11:00,63.81251,R,ugm-3
09-01-2015,12:00,60.66928,R,ugm-3
09-01-2015,13:00,60.02068,R,ugm-3
09-01-2015,14:00,62.51530,R,ugm-3
09-01-2015,15:00,64.36133,R,ugm-3
09-01-2015,16:00,64.11186,R,ugm-3
09-01-2015,17:00,58.52390,R,ugm-3
09-01-2015,18:00,50.84046,R,ugm-3
09-01-2015,19:00,49.44347,R,ugm-3
09-01-2015,20:00,51.63874,R,ugm-3
09-01-2015,21:00,55.92949,R,ugm-3
09-01-2015,22:00,57.07702,R,ugm-3
09-01-2015,23:00,60.22025,R,ugm-3
09-01-2015,24:00,62.56520,R,ugm-3
10-01-2015,01:00,64.92677,R,ugm-3
10-01-2015,02:00,65.79158,R,ugm-3
10-01-2015,03:00,67.40477,R,ugm-3
10-01-2015,04:00,68.65208,R,ugm-3
10-01-2015,05:00,70.14886,R,ugm-3
10-01-2015,06:00,71.09681,R,ugm-3
10-01-2015,07:00,71.24649,R,ugm-3
10-01-2015,08:00,69.89939,R,ugm-3
10-01-2015,09:00,75.93639,R,ugm-3
10-01-2015,10:00,82.17295,R,ugm-3
10-01-2015,11:00,81.37467,R,ugm-3
10-01-2015,12:00,81.12521,R,ugm-3
10-01-2015,13:00,81.62413,R,ugm-3
10-01-2015,14:00,82.17295,R,ugm-3
10-01-2015,15:00,79.62843,R,ugm-3
10-01-2015,16:00,75.98628,R,ugm-3
10-01-2015,17:00,74.28993,R,ugm-3
10-01-2015,18:00,74.73897,R,ugm-3
10-01-2015,19:00,69.60004,R,ugm-3
10-01-2015,20:00,62.91444,R,ugm-3
10-01-2015,21:00,61.86670,R,ugm-3
10-01-2015,22:00,67.55445,R,ugm-3
10-01-2015,23:00,70.99703,R,ugm-3
10-01-2015,24:00,71.94499,R,ugm-3
11-01-2015,01:00,72.57696,R,ugm-3
11-01-2015,02:00,71.24649,R,ugm-3
11-01-2015,03:00,69.20090,R,ugm-3
11-01-2015,04:00,74.48950,R,ugm-3
11-01-2015,05:00,74.88864,R,ugm-3
11-01-2015,06:00,72.84305,R,ugm-3
11-01-2015,07:00,74.88864,R,ugm-3
11-01-2015,08:00,71.04692,R,ugm-3
11-01-2015,09:00,71.49595,R,ugm-3
11-01-2015,10:00,71.79531,R,ugm-3
11-01-2015,11:00,71.09681,R,ugm-3
11-01-2015,12:00,72.19445,R,ugm-3
11-01-2015,13:00,71.39617,R,ugm-3
11-01-2015,14:00,74.09036,R,ugm-3
11-01-2015,15:00,74.04047,R,ugm-3
11-01-2015,16:00,70.49810,R,ugm-3
11-01-2015,17:00,72.04477,R,ugm-3
11-01-2015,18:00,74.43961,R,ugm-3
11-01-2015,19:00,74.14026,R,ugm-3
11-01-2015,20:00,74.83875,R,ugm-3
11-01-2015,21:00,73.54155,R,ugm-3
11-01-2015,22:00,72.69337,R,ugm-3
11-01-2015,23:00,74.93854,R,ugm-3
11-01-2015,24:00,75.88649,R,ugm-3
12-01-2015,01:00,74.24004,R,ugm-3
12-01-2015,02:00,78.69710,R,ugm-3
12-01-2015,03:00,80.62628,R,ugm-3
12-01-2015,04:00,82.72177,R,ugm-3
12-01-2015,05:00,85.76521,R,ugm-3
12-01-2015,06:00,86.51360,R,ugm-3
12-01-2015,07:00,83.17080,R,ugm-3
12-01-2015,08:00,80.32693,R,ugm-3
12-01-2015,09:00,76.93424,R,ugm-3
12-01-2015,10:00,74.53940,R,ugm-3
12-01-2015,11:00,70.14886,R,ugm-3
12-01-2015,12:00,68.95144,R,ugm-3
12-01-2015,13:00,68.25294,R,ugm-3
12-01-2015,14:00,68.55230,R,ugm-3
12-01-2015,15:00,73.69122,R,ugm-3
12-01-2015,16:00,59.77122,R,ugm-3
12-01-2015,17:00,56.97724,R,ugm-3
12-01-2015,18:00,53.23530,R,ugm-3
12-01-2015,19:00,59.12261,R,ugm-3
12-01-2015,20:00,56.42842,R,ugm-3
12-01-2015,21:00,53.48476,R,ugm-3
12-01-2015,22:00,66.05767,R,ugm-3
12-01-2015,23:00,65.60864,R,ugm-3
12-01-2015,24:00,51.83831,R,ugm-3
13-01-2015,01:00,53.48476,R,ugm-3
13-01-2015,02:00,56.14569,R,ugm-3
13-01-2015,03:00,66.20735,R,ugm-3
13-01-2015,04:00,75.63703,R,ugm-3
13-01-2015,05:00,75.63703,R,ugm-3
13-01-2015,06:00,73.44176,R,ugm-3
13-01-2015,07:00,72.04477,R,ugm-3
13-01-2015,08:00,71.64563,R,ugm-3
13-01-2015,09:00,60.66928,R,ugm-3
13-01-2015,10:00,47.69723,R,ugm-3
13-01-2015,11:00,56.82756,R,ugm-3
13-01-2015,12:00,64.66068,R,ugm-3
13-01-2015,13:00,57.27659,R,ugm-3
13-01-2015,14:00,55.58025,R,ugm-3
13-01-2015,15:00,58.77337,R,ugm-3
13-01-2015,16:00,53.43487,R,ugm-3
13-01-2015,17:00,45.45207,R,ugm-3
13-01-2015,18:00,38.21766,R,ugm-3
13-01-2015,19:00,58.22455,R,ugm-3
13-01-2015,20:00,56.92734,R,ugm-3
13-01-2015,21:00,56.32863,R,ugm-3
13-01-2015,22:00,62.06627,R,ugm-3
13-01-2015,23:00,65.80821,R,ugm-3
13-01-2015,24:00,74.83875,R,ugm-3
14-01-2015,01:00,66.85595,R,ugm-3
14-01-2015,02:00,70.31516,R,ugm-3
14-01-2015,03:00,73.24219,R,ugm-3
14-01-2015,04:00,69.84950,R,ugm-3
14-01-2015,05:00,69.50025,R,ugm-3
14-01-2015,06:00,69.05122,R,ugm-3
14-01-2015,07:00,71.59574,R,ugm-3
14-01-2015,08:00,68.45251,R,ugm-3
14-01-2015,09:00,57.97509,R,ugm-3
14-01-2015,10:00,59.17251,R,ugm-3
14-01-2015,11:00,59.67143,R,ugm-3
14-01-2015,12:00,61.76692,R,ugm-3
14-01-2015,13:00,62.41552,R,ugm-3
14-01-2015,14:00,63.96219,R,ugm-3
14-01-2015,15:00,63.16391,R,ugm-3
14-01-2015,16:00,62.56520,R,ugm-3
14-01-2015,17:00,58.92304,R,ugm-3
14-01-2015,18:00,61.91659,R,ugm-3
14-01-2015,19:00,64.41122,R,ugm-3
14-01-2015,20:00,65.80821,R,ugm-3
14-01-2015,21:00,65.95789,R,ugm-3
14-01-2015,22:00,70.04907,R,ugm-3
14-01-2015,23:00,76.38542,R,ugm-3
14-01-2015,24:00,78.78026,R,ugm-3
15-01-2015,01:00,80.02757,R,ugm-3
15-01-2015,02:00,82.35589,R,ugm-3
15-01-2015,03:00,82.47230,R,ugm-3
15-01-2015,04:00,86.31403,R,ugm-3
15-01-2015,05:00,91.25338,R,ugm-3
15-01-2015,06:00,90.50500,R,ugm-3
15-01-2015,07:00,84.91704,R,ugm-3
15-01-2015,08:00,73.39187,R,ugm-3
15-01-2015,09:00,71.54585,R,ugm-3
15-01-2015,10:00,68.00348,R,ugm-3
15-01-2015,11:00,73.19230,R,ugm-3
15-01-2015,12:00,73.64133,R,ugm-3
15-01-2015,13:00,72.29423,R,ugm-3
15-01-2015,14:00,75.68692,R,ugm-3
15-01-2015,15:00,76.13596,R,ugm-3
15-01-2015,16:00,73.69122,R,ugm-3
15-01-2015,17:00,71.49595,R,ugm-3
15-01-2015,18:00,72.34413,R,ugm-3
15-01-2015,19:00,74.48950,R,ugm-3
15-01-2015,20:00,77.93209,R,ugm-3
15-01-2015,21:00,81.27488,R,ugm-3
15-01-2015,22:00,78.78026,R,ugm-3
15-01-2015,23:00,71.19660,R,ugm-3
15-01-2015,24:00,70.39832,R,ugm-3
16-01-2015,01:00,72.04477,R,ugm-3
16-01-2015,02:00,73.64133,R,ugm-3
16-01-2015,03:00,72.69337,R,ugm-3
16-01-2015,04:00,72.99273,R,ugm-3
16-01-2015,05:00,71.29638,R,ugm-3
16-01-2015,06:00,68.85165,R,ugm-3
16-01-2015,07:00,63.56305,R,ugm-3
16-01-2015,08:00,55.23100,R,ugm-3
16-01-2015,09:00,45.10282,R,ugm-3
16-01-2015,10:00,44.15486,R,ugm-3
16-01-2015,11:00,41.41078,R,ugm-3
16-01-2015,12:00,43.95529,R,ugm-3
16-01-2015,13:00,49.19401,R,ugm-3
16-01-2015,14:00,59.37208,R,ugm-3
16-01-2015,15:00,67.85380,R,ugm-3
16-01-2015,16:00,65.80821,R,ugm-3
16-01-2015,17:00,60.71917,R,ugm-3
16-01-2015,18:00,50.34153,R,ugm-3
16-01-2015,19:00,46.05078,R,ugm-3
16-01-2015,20:00,37.21981,R,ugm-3
16-01-2015,21:00,35.67314,R,ugm-3
16-01-2015,22:00,44.55400,R,ugm-3
16-01-2015,23:00,52.18756,R,ugm-3
16-01-2015,24:00,47.49766,R,ugm-3
17-01-2015,01:00,46.69938,R,ugm-3
17-01-2015,02:00,55.21437,R,ugm-3
17-01-2015,03:00,51.48906,R,ugm-3
17-01-2015,04:00,57.72562,R,ugm-3
17-01-2015,05:00,62.36563,R,ugm-3
17-01-2015,06:00,59.27229,R,ugm-3
17-01-2015,07:00,60.41982,R,ugm-3
17-01-2015,08:00,55.92949,R,ugm-3
17-01-2015,09:00,53.58455,R,ugm-3
17-01-2015,10:00,51.73852,R,ugm-3
17-01-2015,11:00,54.18326,R,ugm-3
17-01-2015,12:00,59.27229,R,ugm-3
17-01-2015,13:00,64.71057,R,ugm-3
17-01-2015,14:00,69.05122,R,ugm-3
17-01-2015,15:00,64.91014,R,ugm-3
17-01-2015,16:00,61.21810,R,ugm-3
17-01-2015,17:00,53.13551,R,ugm-3
17-01-2015,18:00,51.18971,R,ugm-3
17-01-2015,19:00,46.54970,R,ugm-3
17-01-2015,20:00,46.35013,R,ugm-3
17-01-2015,21:00,41.56045,R,ugm-3
17-01-2015,22:00,35.52346,R,ugm-3
17-01-2015,23:00,35.37378,R,ugm-3
17-01-2015,24:00,38.31744,R,ugm-3
18-01-2015,01:00,31.93120,R,ugm-3
18-01-2015,02:00,27.20804,R,ugm-3
18-01-2015,03:00,29.83572,R,ugm-3
18-01-2015,04:00,29.58625,R,ugm-3
18-01-2015,05:00,27.14152,R,ugm-3
18-01-2015,06:00,27.39098,R,ugm-3
18-01-2015,07:00,31.63185,R,ugm-3
18-01-2015,08:00,30.58410,R,ugm-3
18-01-2015,09:00,31.78152,R,ugm-3
18-01-2015,10:00,38.26755,R,ugm-3
18-01-2015,11:00,42.80777,R,ugm-3
18-01-2015,12:00,45.95099,R,ugm-3
18-01-2015,13:00,45.55185,R,ugm-3
18-01-2015,14:00,47.19831,R,ugm-3
18-01-2015,15:00,42.30884,R,ugm-3
18-01-2015,16:00,37.86841,R,ugm-3
18-01-2015,17:00,43.15701,R,ugm-3
18-01-2015,18:00,46.25035,R,ugm-3
18-01-2015,19:00,36.92045,R,ugm-3
18-01-2015,20:00,40.26325,R,ugm-3
18-01-2015,21:00,44.15486,R,ugm-3
18-01-2015,22:00,62.61509,R,ugm-3
18-01-2015,23:00,59.42197,R,ugm-3
18-01-2015,24:00,55.58025,R,ugm-3
19-01-2015,01:00,54.48261,R,ugm-3
19-01-2015,02:00,52.08777,R,ugm-3
19-01-2015,03:00,53.53465,R,ugm-3
19-01-2015,04:00,56.32863,R,ugm-3
19-01-2015,05:00,56.62799,R,ugm-3
19-01-2015,06:00,46.69938,R,ugm-3
19-01-2015,07:00,43.10712,R,ugm-3
19-01-2015,08:00,38.71658,R,ugm-3
19-01-2015,09:00,28.38883,R,ugm-3
19-01-2015,10:00,29.33679,R,ugm-3
19-01-2015,11:00,18.41033,R,ugm-3
19-01-2015,12:00,16.46453,R,ugm-3
19-01-2015,13:00,20.90496,R,ugm-3
19-01-2015,14:00,28.48862,R,ugm-3
19-01-2015,15:00,39.86411,R,ugm-3
19-01-2015,16:00,31.98109,R,ugm-3
19-01-2015,17:00,22.70109,R,ugm-3
19-01-2015,18:00,15.56646,R,ugm-3
19-01-2015,19:00,4.93936,R,ugm-3
19-01-2015,20:00,2.79398,R,ugm-3
19-01-2015,21:00,2.74409,R,ugm-3
19-01-2015,22:00,7.18452,R,ugm-3
19-01-2015,23:00,14.41893,R,ugm-3
19-01-2015,24:00,16.56431,R,ugm-3
20-01-2015,01:00,12.57291,R,ugm-3
20-01-2015,02:00,7.31757,R,ugm-3
20-01-2015,03:00,17.46238,R,ugm-3
20-01-2015,04:00,41.66024,R,ugm-3
20-01-2015,05:00,45.15271,R,ugm-3
20-01-2015,06:00,34.67529,R,ugm-3
20-01-2015,07:00,25.44518,R,ugm-3
20-01-2015,08:00,14.56861,R,ugm-3
20-01-2015,09:00,13.07184,R,ugm-3
20-01-2015,10:00,27.98969,R,ugm-3
20-01-2015,11:00,51.73852,R,ugm-3
20-01-2015,12:00,49.79272,R,ugm-3
20-01-2015,13:00,41.41078,R,ugm-3
20-01-2015,14:00,34.12647,R,ugm-3
20-01-2015,15:00,34.72518,R,ugm-3
20-01-2015,16:00,28.63830,R,ugm-3
20-01-2015,17:00,5.78753,R,ugm-3
20-01-2015,18:00,1.74624,R,ugm-3
20-01-2015,19:00,4.14108,R,ugm-3
20-01-2015,20:00,4.54022,R,ugm-3
20-01-2015,21:00,10.67700,R,ugm-3
20-01-2015,22:00,10.67700,R,ugm-3
20-01-2015,23:00,13.22151,R,ugm-3
20-01-2015,24:00,23.00044,R,ugm-3
21-01-2015,01:00,30.40116,R,ugm-3
21-01-2015,02:00,50.42469,R,ugm-3
21-01-2015,03:00,56.82756,R,ugm-3
21-01-2015,04:00,53.68433,R,ugm-3
21-01-2015,05:00,54.28304,R,ugm-3
21-01-2015,06:00,48.54540,R,ugm-3
21-01-2015,07:00,43.50626,R,ugm-3
21-01-2015,08:00,43.40648,R,ugm-3
21-01-2015,09:00,50.99014,R,ugm-3
21-01-2015,10:00,43.80562,R,ugm-3
21-01-2015,11:00,32.08088,R,ugm-3
21-01-2015,12:00,31.28260,R,ugm-3
21-01-2015,13:00,31.33249,R,ugm-3
21-01-2015,14:00,33.72733,R,ugm-3
21-01-2015,15:00,36.12217,R,ugm-3
21-01-2015,16:00,32.08088,R,ugm-3
21-01-2015,17:00,28.53851,R,ugm-3
21-01-2015,18:00,27.09163,R,ugm-3
21-01-2015,19:00,24.44733,R,ugm-3
21-01-2015,20:00,28.33894,R,ugm-3
21-01-2015,21:00,30.33464,R,ugm-3
21-01-2015,22:00,22.90066,R,ugm-3
21-01-2015,23:00,14.86797,R,ugm-3
21-01-2015,24:00,18.90926,R,ugm-3
22-01-2015,01:00,15.69951,R,ugm-3
22-01-2015,02:00,26.14367,R,ugm-3
22-01-2015,03:00,20.25636,R,ugm-3
22-01-2015,04:00,14.21936,R,ugm-3
22-01-2015,05:00,6.38624,R,ugm-3
22-01-2015,06:00,4.14108,R,ugm-3
22-01-2015,07:00,1.09764,R,ugm-3
22-01-2015,08:00,0.94796,R,ugm-3
22-01-2015,09:00,1.94581,R,ugm-3
22-01-2015,10:00,3.59226,R,ugm-3
22-01-2015,11:00,4.54022,R,ugm-3
22-01-2015,12:00,5.03914,R,ugm-3
22-01-2015,13:00,7.88302,R,ugm-3
22-01-2015,14:00,23.54926,R,ugm-3
22-01-2015,15:00,35.77292,R,ugm-3
22-01-2015,16:00,22.65120,R,ugm-3
22-01-2015,17:00,8.28216,R,ugm-3
22-01-2015,18:00,3.09334,R,ugm-3
22-01-2015,19:00,2.14538,R,ugm-3
22-01-2015,20:00,1.34710,R,ugm-3
22-01-2015,21:00,1.64645,R,ugm-3
22-01-2015,22:00,12.62280,R,ugm-3
22-01-2015,23:00,15.56646,R,ugm-3
22-01-2015,24:00,13.67055,R,ugm-3
23-01-2015,01:00,18.16087,R,ugm-3
23-01-2015,02:00,20.02352,R,ugm-3
23-01-2015,03:00,25.89421,R,ugm-3
23-01-2015,04:00,10.47743,R,ugm-3
23-01-2015,05:00,10.02839,R,ugm-3
23-01-2015,06:00,16.06539,R,ugm-3
23-01-2015,07:00,21.05464,R,ugm-3
23-01-2015,08:00,16.36474,R,ugm-3
23-01-2015,09:00,14.36904,R,ugm-3
23-01-2015,10:00,20.35614,R,ugm-3
23-01-2015,11:00,22.75098,R,ugm-3
23-01-2015,12:00,27.39098,R,ugm-3
23-01-2015,13:00,30.63400,R,ugm-3
23-01-2015,14:00,32.48002,R,ugm-3
23-01-2015,15:00,32.67959,R,ugm-3
23-01-2015,16:00,26.24346,R,ugm-3
23-01-2015,17:00,24.14797,R,ugm-3
23-01-2015,18:00,24.09808,R,ugm-3
23-01-2015,19:00,29.08733,R,ugm-3
23-01-2015,20:00,33.17851,R,ugm-3
23-01-2015,21:00,40.01379,R,ugm-3
23-01-2015,22:00,43.70583,R,ugm-3
23-01-2015,23:00,44.10497,R,ugm-3
23-01-2015,24:00,59.52175,R,ugm-3
24-01-2015,01:00,67.32161,R,ugm-3
24-01-2015,02:00,69.45036,R,ugm-3
24-01-2015,03:00,68.35273,R,ugm-3
24-01-2015,04:00,63.96219,R,ugm-3
24-01-2015,05:00,66.80606,R,ugm-3
24-01-2015,06:00,66.15746,R,ugm-3
24-01-2015,07:00,60.36993,R,ugm-3
24-01-2015,08:00,57.27659,R,ugm-3
24-01-2015,09:00,55.58025,R,ugm-3
24-01-2015,10:00,56.32863,R,ugm-3
24-01-2015,11:00,62.36563,R,ugm-3
24-01-2015,12:00,75.23789,R,ugm-3
24-01-2015,13:00,75.68692,R,ugm-3
24-01-2015,14:00,75.83660,R,ugm-3
24-01-2015,15:00,72.49380,R,ugm-3
24-01-2015,16:00,65.95789,R,ugm-3
24-01-2015,17:00,50.64089,R,ugm-3
24-01-2015,18:00,46.40003,R,ugm-3
24-01-2015,19:00,49.54325,R,ugm-3
24-01-2015,20:00,51.58885,R,ugm-3
24-01-2015,21:00,46.94884,R,ugm-3
24-01-2015,22:00,46.30024,R,ugm-3
24-01-2015,23:00,44.45422,R,ugm-3
24-01-2015,24:00,43.10712,R,ugm-3
25-01-2015,01:00,45.03630,R,ugm-3
25-01-2015,02:00,45.50196,R,ugm-3
25-01-2015,03:00,47.39788,R,ugm-3
25-01-2015,04:00,46.35013,R,ugm-3
25-01-2015,05:00,39.06583,R,ugm-3
25-01-2015,06:00,48.34583,R,ugm-3
25-01-2015,07:00,50.09207,R,ugm-3
25-01-2015,08:00,52.58670,R,ugm-3
25-01-2015,09:00,60.96864,R,ugm-3
25-01-2015,10:00,61.76692,R,ugm-3
25-01-2015,11:00,64.06197,R,ugm-3
25-01-2015,12:00,63.66283,R,ugm-3
25-01-2015,13:00,73.44176,R,ugm-3
25-01-2015,14:00,69.05122,R,ugm-3
25-01-2015,15:00,71.34628,R,ugm-3
25-01-2015,16:00,71.39617,R,ugm-3
25-01-2015,17:00,68.20305,R,ugm-3
25-01-2015,18:00,62.06627,R,ugm-3
25-01-2015,19:00,59.12261,R,ugm-3
25-01-2015,20:00,58.72347,R,ugm-3
25-01-2015,21:00,60.86885,R,ugm-3
25-01-2015,22:00,59.42197,R,ugm-3
25-01-2015,23:00,57.42627,R,ugm-3
25-01-2015,24:00,59.52175,R,ugm-3
26-01-2015,01:00,57.34311,R,ugm-3
26-01-2015,02:00,55.68003,R,ugm-3
26-01-2015,03:00,57.12691,R,ugm-3
26-01-2015,04:00,60.96864,R,ugm-3
26-01-2015,05:00,59.07272,R,ugm-3
26-01-2015,06:00,55.48046,R,ugm-3
26-01-2015,07:00,50.59100,R,ugm-3
26-01-2015,08:00,53.73422,R,ugm-3
26-01-2015,09:00,62.46541,R,ugm-3
26-01-2015,10:00,74.38972,R,ugm-3
26-01-2015,11:00,78.58069,R,ugm-3
26-01-2015,12:00,77.93209,R,ugm-3
26-01-2015,13:00,78.18155,R,ugm-3
26-01-2015,14:00,73.74112,R,ugm-3
26-01-2015,15:00,75.38757,R,ugm-3
26-01-2015,16:00,71.69552,R,ugm-3
26-01-2015,17:00,65.95789,R,ugm-3
26-01-2015,18:00,57.72562,R,ugm-3
26-01-2015,19:00,54.73207,R,ugm-3
26-01-2015,20:00,56.32863,R,ugm-3
26-01-2015,21:00,51.53895,R,ugm-3
26-01-2015,22:00,44.60390,R,ugm-3
26-01-2015,23:00,47.09852,R,ugm-3
26-01-2015,24:00,48.69508,R,ugm-3
27-01-2015,01:00,51.42254,R,ugm-3
27-01-2015,02:00,44.03845,R,ugm-3
27-01-2015,03:00,41.21121,R,ugm-3
27-01-2015,04:00,41.41078,R,ugm-3
27-01-2015,05:00,43.95529,R,ugm-3
27-01-2015,06:00,45.65164,R,ugm-3
27-01-2015,07:00,46.99874,R,ugm-3
27-01-2015,08:00,45.55185,R,ugm-3
27-01-2015,09:00,38.41723,R,ugm-3
27-01-2015,10:00,38.46712,R,ugm-3
27-01-2015,11:00,43.15701,R,ugm-3
27-01-2015,12:00,41.41078,R,ugm-3
27-01-2015,13:00,41.46067,R,ugm-3
27-01-2015,14:00,41.95959,R,ugm-3
27-01-2015,15:00,46.74927,R,ugm-3
27-01-2015,16:00,46.69938,R,ugm-3
27-01-2015,17:00,51.53895,R,ugm-3
27-01-2015,18:00,57.47616,R,ugm-3
27-01-2015,19:00,55.38068,R,ugm-3
27-01-2015,20:00,62.96434,R,ugm-3
27-01-2015,21:00,64.81036,R,ugm-3
27-01-2015,22:00,64.16176,R,ugm-3
27-01-2015,23:00,66.10756,R,ugm-3
27-01-2015,24:00,63.46326,R,ugm-3
28-01-2015,01:00,69.45036,R,ugm-3
28-01-2015,02:00,61.73365,R,ugm-3
28-01-2015,03:00,67.90369,R,ugm-3
28-01-2015,04:00,71.54585,R,ugm-3
28-01-2015,05:00,74.68907,R,ugm-3
28-01-2015,06:00,73.39187,R,ugm-3
28-01-2015,07:00,69.69982,R,ugm-3
28-01-2015,08:00,65.55875,R,ugm-3
28-01-2015,09:00,63.16391,R,ugm-3
28-01-2015,10:00,62.11616,R,ugm-3
28-01-2015,11:00,76.68477,R,ugm-3
28-01-2015,12:00,77.68262,R,ugm-3
28-01-2015,13:00,86.01467,R,ugm-3
28-01-2015,14:00,82.87144,R,ugm-3
28-01-2015,15:00,77.08391,R,ugm-3
28-01-2015,16:00,72.84305,R,ugm-3
28-01-2015,17:00,73.09251,R,ugm-3
28-01-2015,18:00,72.14456,R,ugm-3
28-01-2015,19:00,67.60434,R,ugm-3
28-01-2015,20:00,58.32433,R,ugm-3
28-01-2015,21:00,65.55875,R,ugm-3
28-01-2015,22:00,66.10756,R,ugm-3
28-01-2015,23:00,67.80391,R,ugm-3
28-01-2015,24:00,66.00778,R,ugm-3
29-01-2015,01:00,67.05552,R,ugm-3
29-01-2015,02:00,68.31946,R,ugm-3
29-01-2015,03:00,70.99703,R,ugm-3
29-01-2015,04:00,70.74757,R,ugm-3
29-01-2015,05:00,71.64563,R,ugm-3
29-01-2015,06:00,69.40047,R,ugm-3
29-01-2015,07:00,68.95144,R,ugm-3
29-01-2015,08:00,65.90799,R,ugm-3
29-01-2015,09:00,61.91659,R,ugm-3
29-01-2015,10:00,61.21810,R,ugm-3
29-01-2015,11:00,64.81036,R,ugm-3
29-01-2015,12:00,67.75402,R,ugm-3
29-01-2015,13:00,68.55230,R,ugm-3
29-01-2015,14:00,76.58499,R,ugm-3
29-01-2015,15:00,69.94929,R,ugm-3
29-01-2015,16:00,58.37423,R,ugm-3
29-01-2015,17:00,60.96864,R,ugm-3
29-01-2015,18:00,63.61294,R,ugm-3
29-01-2015,19:00,53.38498,R,ugm-3
29-01-2015,20:00,56.97724,R,ugm-3
29-01-2015,21:00,59.12261,R,ugm-3
29-01-2015,22:00,54.68218,R,ugm-3
29-01-2015,23:00,51.78842,R,ugm-3
29-01-2015,24:00,58.42412,R,ugm-3
30-01-2015,01:00,59.93752,R,ugm-3
30-01-2015,02:00,58.74010,R,ugm-3
30-01-2015,03:00,56.37853,R,ugm-3
30-01-2015,04:00,51.04003,R,ugm-3
30-01-2015,05:00,21.10453,R,ugm-3